Time,TemperatureF,DewpointF,PressureIn,WindDirection,WindDirectionDegrees,WindSpeedMPH,WindSpeedGustMPH,Humidity,HourlyPrecipIn,Conditions,Clouds,dailyrainin,SoftwareType,DateUTC
2013-04-29 00:08:00,45.3,35.7,30.04,West,270,0.0,0.0,69,0.00,,,0.00,LWC V2.11 B50,2013-04-28 22:08:00,
2013-04-29 00:38:00,44.4,35.3,30.05,West,270,0.0,0.0,70,0.00,,,0.00,LWC V2.11 B50,2013-04-28 22:38:00,
2013-04-29 01:08:00,42.4,34.4,30.05,WNW,292,0.0,0.0,73,0.00,,,0.00,LWC V2.11 B50,2013-04-28 23:08:00,
2013-04-29 01:38:00,40.8,33.8,30.05,NW,315,0.0,0.0,76,0.00,,,0.00,LWC V2.11 B50,2013-04-28 23:38:00,
2013-04-29 02:08:00,39.6,33.3,30.06,NW,315,0.0,0.0,78,0.00,,,0.00,LWC V2.11 B50,2013-04-29 00:08:00,
2013-04-29 02:38:00,38.5,32.9,30.05,NW,315,0.0,0.0,80,0.00,,,0.00,LWC V2.11 B50,2013-04-29 00:38:00,
2013-04-29 03:08:00,37.4,32.1,30.05,NNW,337,0.0,0.0,81,0.00,,,0.00,LWC V2.11 B50,2013-04-29 01:08:00,
2013-04-29 03:38:00,36.5,31.5,30.05,NW,315,0.0,0.0,82,0.00,,,0.00,LWC V2.11 B50,2013-04-29 01:38:00,
2013-04-29 04:08:00,35.4,30.7,30.04,North,0,0.0,0.0,83,0.00,,,0.00,LWC V2.11 B50,2013-04-29 02:08:00,
2013-04-29 04:38:00,34.9,30.5,30.04,NNW,337,0.0,0.0,84,0.00,,,0.00,LWC V2.11 B50,2013-04-29 02:38:00,
2013-04-29 05:08:00,34.0,29.8,30.04,North,0,0.0,0.0,85,0.00,,,0.00,LWC V2.11 B50,2013-04-29 03:08:00,
2013-04-29 05:38:00,33.4,29.3,30.04,NNW,337,0.0,0.0,85,0.00,,,0.00,LWC V2.11 B50,2013-04-29 03:38:00,
2013-04-29 06:08:00,32.7,29.0,30.03,NW,315,0.0,0.0,86,0.00,,,0.00,LWC V2.11 B50,2013-04-29 04:08:00,
2013-04-29 06:38:00,32.4,28.7,30.03,NW,315,0.0,0.0,86,0.00,,,0.00,LWC V2.11 B50,2013-04-29 04:38:00,
2013-04-29 07:00:00,32.5,29.1,30.03,NW,315,0.0,0.0,87,0.00,,,0.00,LWC V2.11 B50,2013-04-29 05:00:00,
2013-04-29 07:08:00,32.7,29.3,30.03,NW,315,0.0,0.0,87,0.00,,,0.00,LWC V2.11 B50,2013-04-29 05:08:00,
2013-04-29 07:10:00,32.7,29.3,30.04,NW,315,0.0,0.0,87,0.00,,,0.00,LWC V2.11 B50,2013-04-29 05:10:00,
2013-04-29 07:20:00,33.1,29.6,30.04,NW,315,0.0,0.0,87,0.00,,,0.00,LWC V2.11 B50,2013-04-29 05:20:00,
2013-04-29 07:30:00,33.6,30.1,30.04,North,357,0.0,0.0,87,0.00,,,0.00,LWC V2.11 B50,2013-04-29 05:30:00,
2013-04-29 07:40:00,34.5,31.0,30.05,NNE,20,0.0,0.0,87,0.00,,,0.00,LWC V2.11 B50,2013-04-29 05:40:00,
2013-04-29 07:50:00,35.4,32.1,30.06,North,4,0.0,0.0,88,0.00,,,0.00,LWC V2.11 B50,2013-04-29 05:50:00,
2013-04-29 08:09:00,37.6,34.3,30.05,ESE,112,0.0,0.0,88,0.00,,,0.00,LWC V2.11 B50,2013-04-29 06:09:00,
2013-04-29 08:39:00,41.7,38.4,30.06,South,180,2.2,2.2,88,0.00,,,0.00,LWC V2.11 B50,2013-04-29 06:39:00,
2013-04-29 09:09:00,46.0,41.8,30.08,South,180,5.8,5.8,85,0.00,,,0.00,LWC V2.11 B50,2013-04-29 07:09:00,
2013-04-29 09:39:00,49.6,43.0,30.09,SSW,202,0.0,0.0,78,0.00,,,0.00,LWC V2.11 B50,2013-04-29 07:39:00,
2013-04-29 10:09:00,52.9,43.4,30.10,SE,135,2.9,2.9,70,0.00,,,0.00,LWC V2.11 B50,2013-04-29 08:09:00,
2013-04-29 10:39:00,55.4,40.8,30.09,NNW,337,2.0,2.0,58,0.00,,,0.00,LWC V2.11 B50,2013-04-29 08:39:00,
2013-04-29 11:09:00,57.0,39.6,30.09,South,180,1.8,1.8,52,0.00,,,0.00,LWC V2.11 B50,2013-04-29 09:09:00,
2013-04-29 11:39:00,58.5,40.9,30.08,West,270,1.8,1.8,52,0.00,,,0.00,LWC V2.11 B50,2013-04-29 09:39:00,
2013-04-29 12:09:00,59.5,41.4,30.09,SW,225,0.9,0.9,51,0.00,,,0.00,LWC V2.11 B50,2013-04-29 10:09:00,
2013-04-29 12:39:00,61.9,43.1,30.10,NW,315,2.5,2.5,50,0.00,,,0.00,LWC V2.11 B50,2013-04-29 10:39:00,
2013-04-29 13:09:00,61.7,42.9,30.11,WNW,292,2.7,2.7,50,0.00,,,0.00,LWC V2.11 B50,2013-04-29 11:09:00,
2013-04-29 13:39:00,59.5,42.3,30.11,West,270,0.0,0.0,53,0.00,,,0.00,LWC V2.11 B50,2013-04-29 11:39:00,
2013-04-29 14:09:00,58.8,43.1,30.11,ENE,67,0.0,0.0,56,0.00,,,0.00,LWC V2.11 B50,2013-04-29 12:09:00,
2013-04-29 14:39:00,61.5,45.2,30.12,SSE,157,0.7,0.7,54,0.00,,,0.00,LWC V2.11 B50,2013-04-29 12:39:00,
2013-04-29 15:09:00,63.1,45.6,30.11,SSW,202,3.8,3.8,53,0.00,,,0.00,LWC V2.11 B50,2013-04-29 13:09:00,
2013-04-29 15:30:00,64.6,45.5,30.11,WNW,284,0.9,4.2,50,0.00,,,0.00,LWC V2.11 B50,2013-04-29 13:30:00,
2013-04-29 15:39:00,64.8,45.1,30.10,West,270,1.3,1.3,49,0.00,,,0.00,LWC V2.11 B50,2013-04-29 13:39:00,
2013-04-29 15:40:00,64.8,45.1,30.10,WNW,283,1.3,4.2,49,0.00,,,0.00,LWC V2.11 B50,2013-04-29 13:40:00,
2013-04-29 15:50:00,64.6,44.9,30.10,WSW,246,3.8,3.8,49,0.00,,,0.00,LWC V2.11 B50,2013-04-29 13:50:00,
2013-04-29 16:00:00,64.6,44.9,30.10,SW,225,3.8,3.8,49,0.00,,,0.00,LWC V2.11 B50,2013-04-29 14:00:00,
2013-04-29 16:10:00,64.6,44.9,30.10,SW,225,3.8,3.8,50,0.00,,,0.00,LWC V2.11 B50,2013-04-29 14:10:00,
2013-04-29 16:20:00,64.6,44.9,30.10,SW,225,3.8,3.8,50,0.00,,,0.00,LWC V2.11 B50,2013-04-29 14:20:00,
2013-04-29 16:39:00,64.2,43.4,30.11,East,90,0.0,0.0,47,0.00,,,0.00,LWC V2.11 B50,2013-04-29 14:39:00,
2013-04-29 17:09:00,62.4,-99.9,30.11,WNW,292,-999.0,1.3,-999,0.00,,,0.00,LWC V2.11 B50,2013-04-29 15:09:00,
2013-04-29 17:39:00,-999.0,-99.9,30.10,NNW,337,2.5,2.5,-999,0.00,,,0.00,LWC V2.11 B50,2013-04-29 15:39:00,
2013-04-29 18:09:00,61.5,42.2,30.09,West,270,0.0,2.0,49,0.00,,,0.00,LWC V2.11 B50,2013-04-29 16:09:00,
2013-04-29 18:39:00,60.1,40.9,30.09,North,0,3.4,3.4,49,0.00,,,0.00,LWC V2.11 B50,2013-04-29 16:39:00,
2013-04-29 19:09:00,59.5,40.9,30.10,North,0,4.7,4.7,50,0.00,,,0.00,LWC V2.11 B50,2013-04-29 17:09:00,
2013-04-29 19:39:00,57.4,39.5,30.11,West,270,0.0,1.6,51,0.00,,,0.00,LWC V2.11 B50,2013-04-29 17:39:00,
2013-04-29 20:09:00,55.6,38.2,30.11,WNW,292,0.0,0.0,52,0.00,,,0.00,LWC V2.11 B50,2013-04-29 18:09:00,
2013-04-29 20:39:00,53.8,37.9,30.12,NNW,337,0.0,0.0,55,0.00,,,0.00,LWC V2.11 B50,2013-04-29 18:39:00,
2013-04-29 21:09:00,51.4,37.1,30.12,NW,315,0.0,0.0,58,0.00,,,0.00,LWC V2.11 B50,2013-04-29 19:09:00,
2013-04-29 21:39:00,49.3,37.6,30.13,NNE,22,0.0,0.0,64,0.00,,,0.00,LWC V2.11 B50,2013-04-29 19:39:00,
2013-04-29 22:09:00,48.7,37.5,30.14,NW,315,0.0,0.7,65,0.00,,,0.00,LWC V2.11 B50,2013-04-29 20:09:00,
2013-04-29 22:39:00,48.7,36.3,30.14,WNW,292,2.9,2.9,62,0.00,,,0.00,LWC V2.11 B50,2013-04-29 20:39:00,
2013-04-29 23:09:00,48.4,34.8,30.14,NNW,337,1.1,1.1,59,0.00,,,0.00,LWC V2.11 B50,2013-04-29 21:09:00,
2013-04-29 23:39:00,47.5,33.4,30.14,North,0,3.1,3.1,58,0.00,,,0.00,LWC V2.11 B50,2013-04-29 21:39:00,